Погода Лешуконское

Погода Лешуконское : погода сейчас, прогноз погоды и архив. Всё, что Вы хотите узнать о погоде Лешуконское!

Поиск расширенной информации на нашем сайте:

Другие новости

Новости СМИ2

Главная страница сайта

Новости сайта

03.07.2017

Напоминаем, что на нашем специализированном сайте Метеоцентр.Азия вы можете получить высокодетализированные автоматические прогнозы погоды по пунктам России, СНГ и мира в авиационном формате (включающие направление и скорость ветра, видимость, явления погоды, количество и форму облачности, нижнюю и верхнюю границу облачности).


Погода Лешуконское - сегодня

Время (UTC), дата Ветер
(°,м/с) 
Видим.   Явления Облачность Т
(°С)
Тd
(°С)
f(%) Тe
(°С)
Pmin
(гПа)
dP
(гПа)
Po
(мм)
O2
(г/м3)
Тmin Tmax R s Состояние
почвы
09 17.06.18 010 (С) 20000 м    10/4 1000 м верхняя 
[Cu med, cong|Ci sp]
+24.9 +5.9 29 +25  1016.1  -0.8  756  278           
12 17.06.18 310 (СЗ) 20000 м    10/4 1000 м средняя, верхняя 
[Cu med, cong|Ac trans|Ci sp]
+25 +7.7 33 +25  1016.4  0.3  756  278           
18 17.06.18 тихо ()   20000 м    10/0 средняя, верхняя 
[Ac trans|Ci fib]
+23.4 +5.4 31 +23  1016  -0.1  756  280           
21 17.06.18 330 (СЗ) 20000 м    10/4 1000 м верхняя 
[Sc|Ci fib]
+18.7 +6.8 46 +20  1016.6  0.5  756  284           
00 18.06.18 290 (З) 20000 м    10/4 1000 м верхняя 
[Sc|Ci fib]
+14.8 +8 64 +16  1017.3  0.5  757  288           
06 18.06.18 350 (С) 20000 м    6/0 средняя 
[Ac trans]
+22.2 +6.9 37 +22  1016.6  -0.5  756  281           
09 18.06.18 340 (С) 20000 м    4/1 1000 м средняя, верхняя 
[Cu hum|Ac trans|Ci fib]
+24.2 +3.7 26 +24  1015.8  -0.8  756  279           
12 18.06.18 340 (С) 20000 м    3/3 1000 м 
[Cu hum]
+24.7 +4.9 28 +25  1015.1  -0.7  755  278           
18 18.06.18 360 (С) 20000 м    10/0 верхняя 
[Ci fib]
+22.3 +2.2 27 +22  1012.8  -0.9  753  280           
21 18.06.18 020 (С) 20000 м    10/0 верхняя 
[Ci fib]
+16.3 +3.5 42 +18  1012.4  -0.7  753  286           
00 19.06.18 тихо ()   20000 м    10/0 средняя, верхняя 
[Ac trans|Ci fib]
+13.6 +3.7 51 +14  1011.3  -1.1  752  288           
06 19.06.18 110 (В) 20000 м    10/0 средняя, верхняя 
[Ac trans|Ci fib]
+22.9 +8.7 40 +23  1007  -2.5  749  277           
09 19.06.18 110 (В) 20000 м    10/3 1000 м кучево-дожд., средняя, верхняя 
[Cb cap|Ac trans|Ci fib]
+25.1 +6.5 30 +25  1005  -2  748  275           
12 19.06.18 150 (ЮВ) 20000 м    10/4 1000 м кучево-дожд., средняя, верхняя 
[Cb cap|Ac trans|Ci fib]
+25.5 +7.1 31 +26  1002.3  -2.7  746  274           
18 19.06.18 150 (ЮВ) 20000 м  в посл. час ливневой дождь  10/3 600 м кучево-дожд., средняя 
[Cb cap|Ac trans]
+19.1 +13.9 72 +27  999.2  -1.5  743  277           
21 19.06.18 080 (В) 20000 м  {ливн. осадки}  10/3 600 м кучево-дожд., средняя 
[Cb cap|Ac trans]
+16.3 +15.4 94 +28  996.3  -2.5  741  278           
00 20.06.18 100 (В) 20000 м  {ливн. осадки}  10/3 600 м кучево-дожд., средняя, верхняя 
[Cb cap|Ac trans|Ci fib]
+15.3 +14.2 93 +24  994.1  -2.4  739  279           
06 20.06.18 250 (З) 20000 м  слаб. ливневой дождь  10/6 360 м кучево-дожд., средняя 
[Cb cap|Ac trans]
+14.8 +13.6 93 +22  989.5  -2  736  278  +14.4         
06 21.06.18 290 (З) 20000 м  {ливн. осадки}  10/4 300 м кучево-дожд., средняя 
[Cb cap|Ac trans]
+15.6 +13.8 89 +23  989.5  2.8  736  278           
09 21.06.18 280 (З) 20000 м  слаб. ливневой дождь  10/3 300 м кучево-дожд., средняя 
[Cb cap|Ac trans]
+18 +15.3 84 +28  991.3  737  275           
12 21.06.18 260 (З) 20000 м  {ливн. осадки}  10/4 600 м кучево-дожд., средняя 
[Cb cap|Ac trans]
+16 +13.9 87 +23  994.8  3.5  740  279           
21 21.06.18 270 (З) 20000 м  слаб. ливневой дождь  10/3 300 м кучево-дожд., средняя 
[Cb cap|Ac trans]
+12 +11 94 +15  1002  1.9  745  286           
06 22.06.18 300 (СЗ) 20000 м    10/10 420 м кучево-дожд. 
[Cb cap]
+13.2 +10.3 83 +15  1006.7  1.5  749  286           
09 22.06.18 300 (СЗ) 20000 м    10/4 600 м верхняя 
[Sc diur, vesp|Ci fib]
+18.2 +8.8 54 +19  1006.7  0.2  749  281           
12 22.06.18 тихо ()   20000 м    4/4 1000 м 
[Cu med, cong]
+20.8 +4.4 34 +21  1007.1  0.4  749  280           
Время (UTC), дата Ветер
(°,м/с) 
Видим.   Явления Облачность Т
(°С)
Тd
(°С)
f(%) Тe
(°С)
Pmin
(гПа)
dP
(гПа)
Po
(мм)
O2
(г/м3)
Тmin Tmax R s Состояние
почвы

Для получения пояснительной информации подведите курсор к названию столбца.

ПОГОДА Лешуконское - архив

Всё, что Вы хотите узнать о погоде Лешуконское - удобно и подробно!

Выберите нужную дату (начиная с 1 января 2015* года) и нажмите кнопку "Найти".
Будут отображены архивные сводки погоды по пункту Лешуконское, начиная с указанной даты.


Отображать данные в формате CSV (для использования в таблицах Excel)


Внимание! Наш архив погоды предназначен исключительно для личного некоммерческого использования в познавательных целях. Если Вам необходимы официальные справки о состоянии погоды (для производственных, юридических, коммерческих и т.п. целей), обращайтесь в органы Росгидромета.

*Примечание: данная дата относится к архиву по метеостанциям СССР (Россия, СНГ, Балтия).
Архив по метеостанциям Зарубежной Европы и Азии (кроме Китая) хранится 10 дней, по другим регионам земного шара (Китай, Африка, Америка, Австралия, Океания) - 1 день.

Лешуконское - район местоположения метеостанции


Название, широта, долгота, высота метеостанции:
Лешуконское 64.9°ш. 45.8°д. 71 м над ур. моря [Российская Федерация]

Дополнительная информация

В oтличие oт бoльшинства пoгoдных сайтoв мы публикуем пoдрoбную метеoинфoрмацию в детальнoм прoфессиoнальнoм фoрмате.

Характеристики температуры и влажнoсти вoздуха измеряются на высoте 2 м в тени вдали oт зданий и деревьев.
Скoрoсть ветра измеряется на высoте 10 м (на урoвне рoста челoвека скoрoсть ветра ниже в 1.5-2 раза). Если метеoстанция нахoдится в гoрoде или в лесу, тo скoрoсть ветра занижена на 2-4 м/с пo сравнению с oткрытым местoм. Скoрoсть ветра над акватoриями крупных рек и oзёр, а также на вершинах хoлмoв на 2-5 м/с выше, чем в oбычных услoвиях.
Атмoсфернoе давление в разных тoчках местнoсти мoжет значительнo oтличаться oт давления на метеoстанции, в зависимoсти oт услoвий рельефа (при пoдъёме на 10 м давление пoнижается примернo на 1 мм рт.ст.).